Other Surface Observations
Issued by NWS Charleston, SC

Home | Current Version | Previous Version | Text Only | Print | Product List | Glossary On
Versions: 1 2 3 4 5 6 7 8 9 10 11 12 13 14 15 16 17 18 19 20 21 22 23 24 25 26 27 28 29 30 31 32 33 34 35 36 37 38 39 40 41 42 43 44 45 46 47 48 49 50
850
SXUS52 KCHS 200512
OSOCHS

MARINE OBSERVATIONS
NATIONAL WEATHER SERVICE CHARLESTON SC
1200 AM EST MON NOV 20 2017

...DOWNTOWN CHARLESTON AND HARBOR...

CITY           SKY/WX    TMP DP  RH WIND       PRES   REMARKS
WATERFRONT PRK NOT AVBL

...LAKE MOULTRIE...

CITY           SKY/WX    TMP DP  RH WIND       PRES   REMARKS
PINOPOLIS        N/A     54  37  54 NE13      30.01R

...LAKE AND SUPPLEMENTAL COASTAL OBSERVATIONS...

STATION/POSITION TIME  TEMP    WIND        PRES    WAVE   SWELL
                       AIR SEA DIR/SP/G            HT/PER HT/PER/DIR
                 (UTC) (F)     (DEG/KT/KT) (MB)    (FT/S) (FT/S/D)
FORT PULASKI     0442   51 62  320/  8/ 10 1019.6R
SAPELO ISLAND    0400   51     340/  6     1019.0
WINYAH BAY       0345   47     340/  4     1018.0
LAKE MURRAY      0420   44     350/  2/  5 1019.3
ACE BASIN NERRS  0345   48        CALM     1019.0


...C-MAN AND BUOY OBSERVATIONS...

STATION/POSITION TIME  TEMP    WIND        PRES    WAVE   SWELL
                       AIR SEA DIR/SP/G            HT/PER HT/PER/DIR
                 (UTC) (F)     (DEG/KT/KT) (MB)    (FT/S) (FT/S/D)
BUOY 41004       0500   62 73  360/ 14/ 19 1017.6
BUOY 41008       0450   58 67  350/ 19/ 25 1018.5R   4/ 4
FOLLY BEACH CMAN 0500   51     340/  6/  8 1019.2R
CAPERS NS BUOY   0408   53 62  340/ 16/ 19 1017.9R
FRIPP NS BUOY    0408   53 62  300/ 12/ 19 1018.3R
5E ST. MARYS GA  0500      67                N/A     4/ 5


STATION/POSITION TIME  TEMP    WIND        PRES    WAVE   SWELL
                       AIR SEA DIR/SP/G            HT/PER HT/PER/DIR
                 (UTC) (F)     (DEG/KT/KT) (MB)    (FT/S) (FT/S/D)
FRYING PAN BUOY  0500   57 70  360/ 19/ 23 1017.9
BUOY 41025       0500   54 69  320/ 21/ 27 1016.5
CAPE LOOKOUT NC  0500          330/ 20/ 23 1018.2R
BUOY 41002       0450   69 76  340/ 19/ 25 1013.7R   8/ 8
BUOY 41010       NOT AVBL
ST AUGUSTINE FL  0500   55 67  320/ 10/ 13 1019.1R

$$




USA.gov is the U.S. government's official web portal to all federal, state and local government web resources and services.